This is the latest recevied weather packets stored in our database for station/object W9KHP-1. If no packets are shown the sender has not sent any weather packets the latest 10 day(s).
| Time | Temp. | Humidity | Pressure | Rain* | Wind** | Luminosity | Snow |
|---|---|---|---|---|---|---|---|
| 1778107986 | 15° C | 70% | 1016.8 hPa | 0 mm | - | 89 W/m² | - |
| 1778107682 | 15° C | 68% | 1016.7 hPa | 0 mm | - | 95 W/m² | - |
| 1778107380 | 15° C | 68% | 1017.1 hPa | 0 mm | - | 96 W/m² | - |
| 1778107076 | 15° C | 67% | 1017.1 hPa | 0 mm | - | 104 W/m² | - |
| 1778106771 | 15° C | 68% | 1017 hPa | 0 mm | - | 108 W/m² | - |
| 1778106469 | 15° C | 68% | 1017 hPa | 0 mm | - | 112 W/m² | - |
| 1778106165 | 15° C | 67% | 1016.8 hPa | 0 mm | - | 120 W/m² | - |
| 1778105863 | 15° C | 67% | 1017.1 hPa | 0 mm | - | 118 W/m² | - |
| 1778105560 | 15° C | 63% | 1017.1 hPa | 0 mm | - | 120 W/m² | - |
| 1778105252 | 15.56° C | 64% | 1017.3 hPa | 0 mm | - | 139 W/m² | - |
| 1778104952 | 15.56° C | 67% | 1017 hPa | 0 mm | - | 160 W/m² | - |
| 1778104649 | 15.56° C | 65% | 1017.1 hPa | 0 mm | - | 158 W/m² | - |
| 1778104344 | 15.56° C | 62% | 1016.8 hPa | 0 mm | - | 180 W/m² | - |
| 1778104041 | 15.56° C | 63% | 1016.8 hPa | 0 mm | - | 183 W/m² | - |
| 1778103738 | 15.56° C | 64% | 1016.5 hPa | 0 mm | - | 213 W/m² | - |
| 1778103437 | 15.56° C | 67% | 1016.5 hPa | 0 mm | - | 251 W/m² | - |
| 1778103134 | 15.56° C | 63% | 1016.7 hPa | 0 mm | - | 201 W/m² | - |
| 1778102831 | 15.56° C | 62% | 1016.7 hPa | 0 mm | - | 212 W/m² | - |
| 1778102526 | 15.56° C | 64% | 1016.8 hPa | 0 mm | - | 185 W/m² | - |
| 1778102216 | 15.56° C | 61% | 1016.6 hPa | 0 mm | - | 241 W/m² | - |
| 1778101913 | 15.56° C | 61% | 1016.5 hPa | 0 mm | - | 259 W/m² | - |
| 1778101610 | 15.56° C | 62% | 1016.2 hPa | 0 mm | - | 227 W/m² | - |
| 1778101307 | 15.56° C | 60% | 1016.4 hPa | 0 mm | - | 288 W/m² | - |
| 1778101004 | 15° C | 60% | 1016.3 hPa | 0 mm | - | 314 W/m² | - |
| 1778100704 | 15° C | 61% | 1016.7 hPa | 0 mm | - | 227 W/m² | - |
* Rain latest hour (hover to see other rain measurements)
** Current wind speed in m/s (hover to see current wind gust speed)